www.pogodaiklimat.ru

Погода и климат >> Архив погоды >> Новая Зеландия >> Таупо


ПОГОДА на Таупо

  • Прогноз погоды на Таупо
  • Монитор погоды на Таупо

АРХИВ ПОГОДЫ на Таупо

Время (UTC), дата Ветер
(напр.,м/с)
 
Видим.   Явления Облачность Т
(С)
Тd
(С)
f
(%)
Тe
(С)
Тes
(С)
Комфортность P
(гПа)
Po
(гПа)
Тmin
(С)
Tmax
(С)
R
(мм)
R24
(мм)
S
(см)
03 9.06 ЮЗ 3 20 км н/о +11.6 +5.8 68 +10 +10 1017.6 969.1
06 9.06 З 5 20 км н/о +9.3 +5.0 74 +6 +6 1018.5 969.6
09 9.06 З 6 20 км н/о +10.0 +6.4 78 +7 +7 1019.1 970.3
12 9.06 З 8 20 км н/о +10.5 +6.3 75 +7 +7 1019.3 970.6 +11.9
15 9.06 З 6 20 км н/о +10.2 +7.3 82 +7 +7 1019.3 970.5
18 9.06 СЗ 3 20 км н/о +10.1 +8.3 89 +8 +8 1019.2 970.4
21 9.06 З 5 20 км н/о +10.5 +7.9 84 +8 +8 1020.1 971.3
00 10.06 З 6 20 км н/о +11.9 +8.7 81 +9 +9 1020.0 971.5 +9.1
03 10.06 З 3 20 км н/о +12.1 +9.2 82 +11 +11 1018.8 970.4
06 10.06 З 4 20 км н/о +10.8 +8.6 86 +8 +8 1020.3 971.6
09 10.06 СВ 2 20 км н/о +9.8 +8.5 92 +9 +9 1021.5 972.6
12 10.06 СВ 2 20 км н/о +8.7 +7.9 95 +7 +7 1021.8 972.7 +12.4
15 10.06 СВ 2 20 км н/о +8.6 +8.2 97 +7 +7 1021.3 972.2
18 10.06 С 2 2000 м н/о +8.8 +8.8 100 +7 +7 1020.6 971.5
21 10.06 С 2 10 км н/о +9.5 +9.5 100 +8 +8 1020.8 971.8
00 11.06 З 2 20 км н/о +12.7 +9.7 82 +12 +12 1019.1 970.7 +8.4 0.2
03 11.06 С 2 20 км н/о +11.3 +10.0 92 +10 +10 1017.7 969.2
06 11.06 СВ 1 20 км н/о +10.0 +8.1 88 +9 +9 1017.1 968.4
09 11.06 С 1 20 км н/о +9.8 +8.2 90 +9 +9 1017.5 968.7
12 11.06 СВ 2 20 км н/о +9.8 +8.2 90 +8 +8 1016.7 968.0 +13.3
15 11.06 ЮВ 1 20 км н/о +8.4 +7.6 95 +7 +7 1015.4 966.5
18 11.06 ЮВ 2 10 км н/о +6.1 +6.1 100 +4 +4 1014.9 965.6
21 11.06 штиль 0 20 км н/о +8.5 +8.5 100 +7 +7 1014.4 965.6
00 12.06 В 3 20 км н/о +11.9 +9.4 85 +10 +10 1012.6 964.4 +5.1
03 12.06 ЮВ 2 10 км н/о +11.4 +11.0 97 +10 +10 1010.7 962.5
06 12.06 ЮВ 2 20 км н/о +10.4 +9.2 92 +9 +9 1010.6 962.3 4
09 12.06 СЗ 1 4000 м н/о +9.2 +9.2 100 +9 +9 1011.5 962.9
12 12.06 В 2 10 км н/о +9.5 +9.3 99 +8 +8 1010.7 962.2 +12.1 7
15 12.06 СВ 1 20 км н/о +9.0 +9.0 100 +9 +9 1009.4 960.9
18 12.06 СЗ 1 20 км н/о +9.6 +9.3 98 +9 +9 1008.8 960.4 6
21 12.06 В 1 20 км н/о +9.9 +9.9 100 +9 +9 1009.7 961.3
00 13.06 ЮЗ 1 20 км н/о +12.2 +10.4 89 +12 +12 1008.6 960.7 +6.9 18
03 13.06 ЮЗ 2 20 км н/о +12.3 +10.8 91 +12 +12 1007.4 959.5
06 13.06 ЮВ 2 20 км н/о +9.6 +9.5 99 +8 +8 1008.1 959.8 1
09 13.06 С 2 20 км н/о +10.6 +10.1 97 +9 +9 1007.8 959.6
12 13.06 В 2 4000 м н/о +9.6 +9.6 100 +8 +8 1009.0 960.6 +12.9 0.8
15 13.06 ЮВ 2 20 км н/о +9.4 +9.4 100 +8 +8 1008.8 960.4
18 13.06 ЮВ 2 10 км н/о +9.5 +9.5 100 +8 +8 1008.1 959.7
21 13.06 Ю 1 20 км н/о +10.3 +10.3 100 +10 +10 1008.9 960.6
00 14.06 штиль 0 20 км н/о +12.3 +11.1 92 +12 +12 1007.6 959.7 +8.6 3
03 14.06 Ю 1 20 км н/о +13.7 +12.2 91 +14 +14 1005.8 958.2
06 14.06 ЮВ 3 20 км н/о +8.6 +8.1 97 +6 +6 1006.6 958.2
09 14.06 ЮВ 4 20 км н/о +9.1 +8.5 96 +6 +6 1006.8 958.4
12 14.06 В 1 20 км н/о +8.2 +8.2 100 +7 +7 1007.1 958.6 +14.4
15 14.06 штиль 0 20 км н/о +9.0 +9.0 100 +8 +8 1005.9 957.6
18 14.06 В 2 20 км н/о +5.2 +5.2 100 +3 +3 1006.0 957.0
21 14.06 ЮЗ 1 20 км н/о +9.6 +9.6 100 +9 +9 1006.2 957.9
00 15.06 З 5 20 км н/о +12.7 +10.5 86 +11 +11 1005.3 957.6 +4.2 0.2
03 15.06 ЮЗ 5 20 км н/о +12.5 +9.9 84 +10 +10 1004.8 957.1
06 15.06 З 7 20 км н/о +12.0 +9.0 82 +9 +9 1005.6 957.8
09 15.06 З 8 20 км н/о +11.3 +8.3 82 +8 +8 1006.9 958.9
12 15.06 З 9 20 км н/о +10.7 +7.7 82 +7 +7 1007.6 959.5 +14.2
15 15.06 З 12 20 км н/о +9.8 +5.3 74 +5 +5 1007.7 959.4
18 15.06 З 9 20 км н/о +9.6 +7.1 84 +5 +5 1009.0 960.6
21 15.06 З 9 20 км н/о +10.0 +6.4 78 +6 +6 1011.3 962.9
00 16.06 З 9 20 км н/о +12.4 +6.9 69 +9 +9 1011.1 963.1 +9.4

 

Местоположение метеостанции Таупо (Новая Зеландия): широта -38.73 долгота 176.06 высота над уровнем моря 401 м.

В архиве по умолчанию представлена погода на Таупо за последнюю неделю. Архивные данные за месяц целиком и за предыдущие месяцы, начиная с января 2011 года, Вы можете получить, выбрав интересующий диапазон дат из раскрывающегося списка и нажав кнопку "Ввод!".


*Определитесь, кто Вы:
робот инопланетянин человек

Внимание! Время в таблицах - всемирное. Для получения местного времени необходимо прибавить поправку, которая равна 12 ч.

Смотрите также архив погоды в соседних городах и на ближайших метеорологических станциях:

Погода на Уэйауру (Новая Зеландия) (86 км)
Погода в Нейпире (Новая Зеландия) (105 км)
Погода в Тауранге (Новая Зеландия) (120 км)
Погода в Тахароа (Новая Зеландия) (133 км)
Погода в Нью-Плимуте (Новая Зеландия) (166 км)
Погода в Гисборне (Новая Зеландия) (167 км)
Погода в Пальмерстон-Норте (Новая Зеландия) (180 км)
Погода в Окленде (Новая Зеландия) (222 км)
Погода в Хикс-Бей (Новая Зеландия) (236 км)
Погода в Каслпойнт (Новая Зеландия) (242 км)

Пояснения к столбцам:

Ветер - указаны скорость ветра в м/с - средняя за 10 мин, порывы в срок и между сроками (в фигурных скобках) и направление, откуда дует ветер: С - северный, СВ - северо-восточный, В - восточный, ЮВ - юго-восточный, Ю - южный, ЮЗ - юго-западный, З - западный, СЗ - северо-западный.
Видимость - горизонтальная дальность видимости в метрах или километрах. При видимости от 1 до 10 км при отсутствии осадков обычно наблюдается дымка, при ухудшении видимости до 1 км и менее - туман. В сухую погоду видимость может ухудшаться дымом, пылью или мглою.
Явления - указаны атмосферные явления, наблюдавшиеся в срок или в последний час перед сроком; фигурными скобками обозначены явления, наблюдавшиеся между сроками (за 1-3 часа до срока); квадратными скобками обозначены град или гололедные отложения с указанием их диаметра в мм.
Облачность - указаны через наклонную черту общая и нижняя облачность в баллах и высота нижней границы облаков в метрах; квадратными скобками обозначены формы облаков: Ci - перистые, Cs - перисто-слоистые, Cc - перисто-кучевые, Ac - высококучевые, As - высокослоистые, Sc - слоисто-кучевые, Ns - слоисто-дождевые, Cu - кучевые, Cb - кучево-дождевые. Подробнее классификацию облаков см. в Атласе облаков (PDF).
T - Температура воздуха - температура, измеренная на высоте 2 м над землей.
Td - Температура точки росы - температура, при понижении до которой содержащийся в воздухе водяной пар достигнет насыщения.
f - Относительная влажность воздуха - влажноcть воздуха, измеренная на высоте 2 м над землей.
Te - Эффективная температура - температура, которую ощущает одетый по сезону человек в тени. Характеристика душности погоды. При расчете учитывается влияние влажности воздуха и скорости ветра на теплоощущения человека.
Tes - Эффективная температура на солнце - температура, которую ощущает человек, с поправкой на солнечный нагрев. Характеристика знойности погоды. Зависит от высоты солнца над горизонтом, облачности и скорости ветра. Ночью, в пасмурную погоду, а также при ветре 12 м/с и более поправка равна нулю.
P - Атмосферное давление - приведенное к уровню моря атмосферное давление.
Po - Атмосферное давление - измеренное на уровне метеостанции атмосферное давление.
Tmin - Минимальная температура - минимум температуры воздуха на высоте 2 м над землей.
Tmax - Максимальная температура - максимум температуры воздуха на высоте 2 м над землей.
R - Количество осадков - Количество выпавших осадков за период времени, мм. При наведении курсора мыши на число - период времени, за который выпало указанное количество осадков.
R24 - Количество осадков - Количество выпавших осадков за 24 часа, мм.
S - Снежный покров - Высота снежного покрова, см. При наведении курсора мыши на число - состояние снежного покрова и степень покрытия местности в баллах.